Time,TemperatureF,DewpointF,PressureIn,WindDirection,WindDirectionDegrees,WindSpeedMPH,WindSpeedGustMPH,Humidity,HourlyPrecipIn,Conditions,Clouds,dailyrainin,SoftwareType,DateUTC
2012-06-05 00:08:00,52.3,47.0,29.84,NE,46,1.0,3.0,82,0.00,,,0.00,weatherlink.com 1.10,2012-06-05 07:08:00,
2012-06-05 00:23:00,50.7,47.0,29.84,ENE,58,0.0,3.0,86,0.00,,,0.00,weatherlink.com 1.10,2012-06-05 07:23:00,
2012-06-05 00:38:00,49.2,47.0,29.84,SE,139,1.0,6.0,92,0.00,,,0.00,weatherlink.com 1.10,2012-06-05 07:38:00,
2012-06-05 00:53:00,48.8,47.0,29.84,WSW,243,0.0,2.0,94,0.00,,,0.00,weatherlink.com 1.10,2012-06-05 07:53:00,
2012-06-05 01:23:00,48.3,47.0,29.84,NE,55,0.0,3.0,95,0.00,,,0.00,weatherlink.com 1.10,2012-06-05 08:23:00,
2012-06-05 01:38:00,47.5,46.0,29.84,North,1,2.0,2.0,95,0.00,,,0.00,weatherlink.com 1.10,2012-06-05 08:38:00,
2012-06-05 01:56:00,49.8,45.0,29.83,NE,34,2.0,7.0,84,0.00,,,0.00,weatherlink.com 1.10,2012-06-05 08:56:00,
2012-06-05 02:08:00,49.0,46.0,29.83,NE,39,2.0,4.0,89,0.00,,,0.00,weatherlink.com 1.10,2012-06-05 09:08:00,
2012-06-05 02:23:00,48.3,46.0,29.83,NE,35,2.0,6.0,90,0.00,,,0.00,weatherlink.com 1.10,2012-06-05 09:23:00,
2012-06-05 02:38:00,49.1,44.0,29.83,NW,311,1.0,3.0,81,0.00,,,0.00,weatherlink.com 1.10,2012-06-05 09:38:00,
2012-06-05 02:53:00,49.9,42.0,29.82,NNE,32,1.0,5.0,74,0.00,,,0.00,weatherlink.com 1.10,2012-06-05 09:53:00,
2012-06-05 03:08:00,50.3,42.0,29.82,East,96,0.0,4.0,74,0.00,,,0.00,weatherlink.com 1.10,2012-06-05 10:08:00,
2012-06-05 03:39:00,47.1,43.0,29.83,NE,43,1.0,4.0,85,0.00,,,0.00,weatherlink.com 1.10,2012-06-05 10:39:00,
2012-06-05 04:09:00,45.5,37.0,29.81,NNE,32,0.0,2.0,72,0.00,,,0.00,weatherlink.com 1.10,2012-06-05 11:09:00,
2012-06-05 04:24:00,48.4,31.0,29.82,NNE,24,0.0,2.0,52,0.00,,,0.00,weatherlink.com 1.10,2012-06-05 11:24:00,
2012-06-05 04:39:00,47.9,39.0,29.82,NNW,345,2.0,3.0,70,0.00,,,0.00,weatherlink.com 1.10,2012-06-05 11:39:00,
2012-06-05 04:54:00,45.1,42.0,29.81,NNE,29,1.0,5.0,89,0.00,,,0.00,weatherlink.com 1.10,2012-06-05 11:54:00,
2012-06-05 05:09:00,44.5,43.0,29.81,NE,43,1.0,5.0,93,0.00,,,0.00,weatherlink.com 1.10,2012-06-05 12:09:00,
2012-06-05 05:24:00,44.8,43.0,29.82,NW,320,3.0,4.0,94,0.00,,,0.00,weatherlink.com 1.10,2012-06-05 12:24:00,
2012-06-05 05:39:00,44.3,43.0,29.82,North,10,0.0,4.0,94,0.00,,,0.00,weatherlink.com 1.10,2012-06-05 12:39:00,
2012-06-05 05:54:00,44.8,44.0,29.83,NNW,343,1.0,4.0,95,0.00,,,0.00,weatherlink.com 1.10,2012-06-05 12:54:00,
2012-06-05 06:10:00,45.2,44.0,29.83,NNE,12,3.0,4.0,95,0.00,,,0.00,weatherlink.com 1.10,2012-06-05 13:10:00,
2012-06-05 06:24:00,44.9,44.0,29.83,NW,308,0.0,4.0,95,0.00,,,0.00,weatherlink.com 1.10,2012-06-05 13:24:00,
2012-06-05 06:39:00,44.8,44.0,29.83,SW,233,1.0,4.0,95,0.00,,,0.00,weatherlink.com 1.10,2012-06-05 13:39:00,
2012-06-05 06:54:00,44.5,43.0,29.83,North,352,0.0,5.0,95,0.00,,,0.00,weatherlink.com 1.10,2012-06-05 13:54:00,
2012-06-05 07:09:00,44.9,44.0,29.83,NNE,33,1.0,5.0,96,0.00,,,0.00,weatherlink.com 1.10,2012-06-05 14:09:00,
2012-06-05 07:24:00,45.2,44.0,29.83,NW,322,2.0,4.0,96,0.00,,,0.00,weatherlink.com 1.10,2012-06-05 14:24:00,
2012-06-05 07:39:00,45.7,45.0,29.84,NNW,338,1.0,4.0,96,0.00,,,0.00,weatherlink.com 1.10,2012-06-05 14:39:00,
2012-06-05 07:55:00,46.1,45.0,29.84,NNE,33,2.0,4.0,95,0.00,,,0.00,weatherlink.com 1.10,2012-06-05 14:55:00,
2012-06-05 08:09:00,47.6,46.0,29.85,NW,315,0.0,3.0,94,0.00,,,0.00,weatherlink.com 1.10,2012-06-05 15:09:00,
2012-06-05 08:24:00,47.9,46.0,29.85,NE,56,1.0,5.0,91,0.00,,,0.00,weatherlink.com 1.10,2012-06-05 15:24:00,
2012-06-05 08:39:00,48.7,46.0,29.85,WNW,290,1.0,3.0,90,0.00,,,0.00,weatherlink.com 1.10,2012-06-05 15:39:00,
2012-06-05 08:54:00,49.0,46.0,29.86,NNE,25,2.0,4.0,89,0.00,,,0.00,weatherlink.com 1.10,2012-06-05 15:54:00,
2012-06-05 09:09:00,49.3,46.0,29.86,SSE,167,0.0,3.0,88,0.00,,,0.00,weatherlink.com 1.10,2012-06-05 16:09:00,
2012-06-05 09:24:00,49.9,47.0,29.87,NE,42,0.0,1.0,88,0.00,,,0.00,weatherlink.com 1.10,2012-06-05 16:24:00,
2012-06-05 09:39:00,50.4,47.0,29.88,WNW,288,0.0,2.0,87,0.00,,,0.00,weatherlink.com 1.10,2012-06-05 16:39:00,
2012-06-05 09:54:00,51.4,46.0,29.88,South,191,0.0,2.0,83,0.00,,,0.00,weatherlink.com 1.10,2012-06-05 16:54:00,
2012-06-05 10:09:00,52.3,46.0,29.88,ENE,77,1.0,4.0,79,0.00,,,0.00,weatherlink.com 1.10,2012-06-05 17:09:00,
2012-06-05 10:24:00,53.8,46.0,29.88,NE,54,0.0,3.0,74,0.00,,,0.00,weatherlink.com 1.10,2012-06-05 17:24:00,
2012-06-05 10:39:00,55.1,46.0,29.89,North,351,3.0,4.0,72,0.00,,,0.00,weatherlink.com 1.10,2012-06-05 17:39:00,
2012-06-05 10:54:00,56.3,46.0,29.88,NNW,336,1.0,3.0,68,0.00,,,0.00,weatherlink.com 1.10,2012-06-05 17:54:00,
2012-06-05 11:10:00,56.6,45.0,29.88,NE,40,0.0,4.0,66,0.00,,,0.00,weatherlink.com 1.10,2012-06-05 18:10:00,
2012-06-05 11:25:00,58.2,46.0,29.89,South,171,0.0,5.0,65,0.00,,,0.00,weatherlink.com 1.10,2012-06-05 18:25:00,
2012-06-05 11:40:00,59.8,46.0,29.89,NW,304,0.0,4.0,61,0.00,,,0.00,weatherlink.com 1.10,2012-06-05 18:40:00,
2012-06-05 11:55:00,60.9,47.0,29.89,NE,53,1.0,3.0,60,0.00,,,0.00,weatherlink.com 1.10,2012-06-05 18:55:00,
2012-06-05 12:10:00,62.1,47.0,29.89,NE,41,2.0,4.0,58,0.00,,,0.00,weatherlink.com 1.10,2012-06-05 19:10:00,
2012-06-05 12:25:00,62.8,46.0,29.89,NE,56,2.0,3.0,54,0.00,,,0.00,weatherlink.com 1.10,2012-06-05 19:25:00,
2012-06-05 12:40:00,62.1,46.0,29.89,NE,37,2.0,5.0,55,0.00,,,0.00,weatherlink.com 1.10,2012-06-05 19:40:00,
2012-06-05 12:55:00,62.3,44.0,29.89,North,6,2.0,5.0,52,0.00,,,0.00,weatherlink.com 1.10,2012-06-05 19:55:00,
2012-06-05 13:10:00,62.8,45.0,29.88,ENE,58,2.0,6.0,52,0.00,,,0.00,weatherlink.com 1.10,2012-06-05 20:10:00,
2012-06-05 13:25:00,63.2,44.0,29.88,North,5,1.0,5.0,50,0.00,,,0.00,weatherlink.com 1.10,2012-06-05 20:25:00,
2012-06-05 13:40:00,64.5,45.0,29.88,WNW,294,1.0,5.0,49,0.00,,,0.00,weatherlink.com 1.10,2012-06-05 20:40:00,
2012-06-05 13:55:00,65.5,45.0,29.88,NE,41,1.0,4.0,47,0.00,,,0.00,weatherlink.com 1.10,2012-06-05 20:55:00,
2012-06-05 14:10:00,65.3,46.0,29.87,SW,233,0.0,4.0,50,0.00,,,0.00,weatherlink.com 1.10,2012-06-05 21:10:00,
2012-06-05 14:25:00,64.8,46.0,29.88,SE,143,0.0,5.0,50,0.00,,,0.00,weatherlink.com 1.10,2012-06-05 21:25:00,
2012-06-05 14:40:00,65.7,46.0,29.88,West,271,1.0,3.0,49,0.00,,,0.00,weatherlink.com 1.10,2012-06-05 21:40:00,
2012-06-05 14:55:00,65.5,45.0,29.88,ENE,60,1.0,5.0,48,0.00,,,0.00,weatherlink.com 1.10,2012-06-05 21:55:00,
2012-06-05 15:10:00,64.7,45.0,29.88,NNE,29,0.0,5.0,50,0.00,,,0.00,weatherlink.com 1.10,2012-06-05 22:10:00,
2012-06-05 15:25:00,64.9,46.0,29.87,NNW,331,2.0,4.0,50,0.00,,,0.00,weatherlink.com 1.10,2012-06-05 22:25:00,
2012-06-05 15:40:00,66.7,46.0,29.87,WNW,283,1.0,4.0,48,0.00,,,0.00,weatherlink.com 1.10,2012-06-05 22:40:00,
2012-06-05 15:55:00,66.6,46.0,29.87,West,270,0.0,3.0,47,0.00,,,0.00,weatherlink.com 1.10,2012-06-05 22:55:00,
2012-06-05 16:10:00,66.2,45.0,29.87,East,88,3.0,3.0,47,0.00,,,0.00,weatherlink.com 1.10,2012-06-05 23:10:00,
2012-06-05 16:25:00,65.8,45.0,29.87,SE,125,0.0,2.0,48,0.00,,,0.00,weatherlink.com 1.10,2012-06-05 23:25:00,
2012-06-05 16:40:00,65.2,45.0,29.86,WSW,240,0.0,5.0,49,0.00,,,0.00,weatherlink.com 1.10,2012-06-05 23:40:00,
2012-06-05 16:55:00,65.7,45.0,29.86,WNW,290,0.0,2.0,48,0.00,,,0.00,weatherlink.com 1.10,2012-06-05 23:55:00,
2012-06-05 17:10:00,64.9,45.0,29.86,WNW,285,2.0,3.0,48,0.00,,,0.00,weatherlink.com 1.10,2012-06-06 00:10:00,
2012-06-05 17:25:00,63.4,45.0,29.86,NE,54,1.0,4.0,51,0.00,,,0.00,weatherlink.com 1.10,2012-06-06 00:25:00,
2012-06-05 17:40:00,62.0,45.0,29.86,ENE,67,0.0,4.0,54,0.00,,,0.00,weatherlink.com 1.10,2012-06-06 00:40:00,
2012-06-05 17:55:00,60.3,45.0,29.86,ENE,58,0.0,3.0,58,0.00,,,0.00,weatherlink.com 1.10,2012-06-06 00:55:00,
2012-06-05 18:10:00,59.4,46.0,29.86,NNW,335,1.0,3.0,61,0.00,,,0.00,weatherlink.com 1.10,2012-06-06 01:10:00,
2012-06-05 18:25:00,58.5,46.0,29.86,East,99,0.0,3.0,64,0.00,,,0.00,weatherlink.com 1.10,2012-06-06 01:25:00,
2012-06-05 18:40:00,57.0,46.0,29.86,NE,48,0.0,3.0,68,0.00,,,0.00,weatherlink.com 1.10,2012-06-06 01:40:00,
2012-06-05 18:55:00,55.7,46.0,29.86,SW,229,0.0,4.0,70,0.00,,,0.00,weatherlink.com 1.10,2012-06-06 01:55:00,
2012-06-05 19:10:00,54.6,46.0,29.86,North,5,0.0,4.0,72,0.00,,,0.00,weatherlink.com 1.10,2012-06-06 02:10:00,
2012-06-05 19:25:00,53.7,46.0,29.86,NE,54,2.0,4.0,74,0.00,,,0.00,weatherlink.com 1.10,2012-06-06 02:25:00,
2012-06-05 19:40:00,52.6,45.0,29.87,NE,38,0.0,4.0,75,0.00,,,0.00,weatherlink.com 1.10,2012-06-06 02:40:00,
2012-06-05 19:55:00,51.5,45.0,29.87,North,352,0.0,4.0,77,0.00,,,0.00,weatherlink.com 1.10,2012-06-06 02:55:00,
2012-06-05 20:10:00,50.5,44.0,29.87,NNE,19,2.0,4.0,78,0.00,,,0.00,weatherlink.com 1.10,2012-06-06 03:10:00,
2012-06-05 20:25:00,49.7,44.0,29.87,NNW,341,0.0,3.0,80,0.00,,,0.00,weatherlink.com 1.10,2012-06-06 03:25:00,
2012-06-05 20:41:00,48.9,43.0,29.87,NNE,32,3.0,3.0,80,0.00,,,0.00,weatherlink.com 1.10,2012-06-06 03:41:00,
2012-06-05 20:56:00,48.3,43.0,29.88,North,11,1.0,2.0,81,0.00,,,0.00,weatherlink.com 1.10,2012-06-06 03:56:00,
2012-06-05 21:11:00,47.5,42.0,29.88,NNE,19,1.0,3.0,82,0.00,,,0.00,weatherlink.com 1.10,2012-06-06 04:11:00,
2012-06-05 21:25:00,46.7,41.0,29.88,NNE,29,0.0,1.0,80,0.00,,,0.00,weatherlink.com 1.10,2012-06-06 04:25:00,
2012-06-05 21:40:00,45.0,38.0,29.88,NNE,18,1.0,3.0,75,0.00,,,0.00,weatherlink.com 1.10,2012-06-06 04:40:00,
2012-06-05 21:55:00,43.6,38.0,29.89,NNE,22,2.0,2.0,79,0.00,,,0.00,weatherlink.com 1.10,2012-06-06 04:55:00,
2012-06-05 22:10:00,45.7,39.0,29.88,NNE,15,0.0,2.0,77,0.00,,,0.00,weatherlink.com 1.10,2012-06-06 05:10:00,
2012-06-05 22:25:00,46.8,39.0,29.89,North,9,1.0,1.0,75,0.00,,,0.00,weatherlink.com 1.10,2012-06-06 05:25:00,
2012-06-05 22:40:00,46.4,40.0,29.89,NNE,22,0.0,2.0,78,0.00,,,0.00,weatherlink.com 1.10,2012-06-06 05:40:00,
2012-06-05 22:55:00,43.8,38.0,29.89,NNE,25,0.0,1.0,79,0.00,,,0.00,weatherlink.com 1.10,2012-06-06 05:55:00,
2012-06-05 23:10:00,42.8,37.0,29.88,NNE,25,0.0,1.0,81,0.00,,,0.00,weatherlink.com 1.10,2012-06-06 06:10:00,
2012-06-05 23:26:00,42.7,38.0,29.88,NNE,23,0.0,1.0,83,0.00,,,0.00,weatherlink.com 1.10,2012-06-06 06:26:00,
2012-06-05 23:41:00,42.7,38.0,29.88,NNE,22,0.0,1.0,83,0.00,,,0.00,weatherlink.com 1.10,2012-06-06 06:41:00,
2012-06-05 23:56:00,42.6,38.0,29.88,NNE,22,1.0,1.0,85,0.00,,,0.00,weatherlink.com 1.10,2012-06-06 06:56:00,